This is the latest recevied weather packets stored in our database for station/object JA0ZJX-13. If no packets are shown the sender has not sent any weather packets the latest 10 day(s).
| Time | Temp. | Humidity | Pressure | Rain* | Wind** | Luminosity | Snow |
|---|---|---|---|---|---|---|---|
| 1777166619 | 18.33° C | 54% | 1018 hPa | 0 mm | - | 911 W/m² | - |
| 1777166006 | 18.33° C | 54% | 1018.2 hPa | 0 mm | - | 884 W/m² | - |
| 1777165416 | 17.78° C | 57% | 1018.4 hPa | 0 mm | - | 858 W/m² | - |
| 1777164810 | 17.78° C | 58% | 1018.6 hPa | 0 mm | - | 833 W/m² | - |
| 1777164220 | 17.22° C | 59% | 1018.7 hPa | 0 mm | - | 810 W/m² | - |
| 1777163607 | 16.67° C | 60% | 1018.8 hPa | 0 mm | - | 788 W/m² | - |
| 1777163021 | 16.67° C | 60% | 1019 hPa | 0 mm | - | 765 W/m² | - |
| 1777162410 | 15.56° C | 62% | 1019.3 hPa | 0 mm | - | 744 W/m² | - |
| 1777161820 | 15.56° C | 64% | 1019.5 hPa | 0 mm | - | 710 W/m² | - |
| 1777161207 | 14.44° C | 66% | 1019.7 hPa | 0 mm | - | 684 W/m² | - |
| 1777160618 | 14.44° C | 67% | 1019.9 hPa | 0 mm | - | 649 W/m² | - |
| 1777160008 | 14.44° C | 68% | 1020.3 hPa | 0 mm | - | 149 W/m² | - |
| 1777159418 | 13.89° C | 70% | 1020.4 hPa | 0 mm | - | 596 W/m² | - |
| 1777158808 | 13.33° C | 71% | 1020.5 hPa | 0 mm | - | 557 W/m² | - |
| 1777158220 | 12.78° C | 72% | 1020.6 hPa | 0 mm | - | 527 W/m² | - |
| 1777157610 | 12.78° C | 72% | 1020.9 hPa | 0 mm | - | 496 W/m² | - |
| 1777157020 | 12.78° C | 73% | 1020.8 hPa | 0 mm | - | 461 W/m² | - |
| 1777156413 | 12.78° C | 73% | 1020.8 hPa | 0 mm | - | 427 W/m² | - |
| 1777155823 | 12.22° C | 74% | 1020.9 hPa | 0 mm | - | 394 W/m² | - |
| 1777155212 | 11.67° C | 78% | 1021.1 hPa | 0 mm | - | 359 W/m² | - |
| 1777154622 | 11.11° C | 78% | 1021 hPa | 0 mm | - | 322 W/m² | - |
| 1777154015 | 10.56° C | 81% | 1021.1 hPa | 0 mm | - | 283 W/m² | - |
| 1777153424 | 10° C | 83% | 1021.1 hPa | 0 mm | - | 250 W/m² | - |
| 1777152812 | 9.44° C | 83% | 1021.1 hPa | 0 mm | - | 214 W/m² | - |
| 1777152222 | 9.44° C | 85% | 1021 hPa | 0 mm | - | 181 W/m² | - |
* Rain latest hour (hover to see other rain measurements)
** Current wind speed in m/s (hover to see current wind gust speed)